STARLINK-3892 (52488 NORAD) Tracking and Keplerian Element Data
This shows tracking and keplerian element data for the satellite.
Feedback or suggestion? Click here.
Element | Value |
Catalog | 52488 |
Name | STARLINK-3892 |
Epoch Orbit | 130 |
Epoch Day | 167.08334491 |
Epoch Year | 2022 |
RAAN | 64.9749 |
Inclination | 53.2184 |
Eccentricity | 0.0001736 |
Argument of Perigee | 31.1027 |
Mean Anonmoly | 120.9881 |
Mean Motion | 15.73214776 |
Decay Rate | 0.00049136 |
L1 | 1 52488U 22049AP 22167.08334491 .00049136 00000+0 35224-3 0 9995 |
L2 | 2 52488 53.2184 64.9749 0001736 31.1027 120.9881 15.73214776 1308 |
Live tracking and technical data element details for STARLINK-3892 (NORAD 52488). STARLINK-3892 can be tracked NOW for your location showing map with azimuth and elevation plus other details from your city location.
Track the satellite on the map from your city or location and see movement details for azimuth, elevation, latitude, longitude, range, height, and movement on the map or in text.
IsCatalogInMostPopularTable: catalog: 52488, numindb: 1
Update: records affected: 1
GetName: 52488 STARLINK-3892
Hit Count: updated at: Mon, 27 Jun 2022 05:23:30 GMT